GFSSW_850_spd_000.txt.gz
Wind_Speed
14 16 17 16 15 14 16 16 16 17 16 17 18 18 17 18 19 25 34 29 22 18 15 13 15 13 12 7 9 5 3 3 5 3 7 4 3 4 8 10 8 9 6 7 12
17 16 16 16 16 16 17 17 17 16 16 16 17 18 18 18 20 31 35 25 25 20 20 18 16 14 6 5 7 5 3 7 7 6 6 6 7 12 5 6 3 8 9 12 11
18 17 16 17 17 17 18 17 18 17 16 17 17 16 15 15 18 35 26 22 27 24 20 18 8 5 5 6 7 6 5 7 12 15 14 8 6 11 7 4 12 17 18 15 13
19 19 19 18 18 18 17 17 18 17 16 16 17 16 14 11 6 4 9 7 21 24 22 21 16 6 3 5 8 3 13 9 12 17 8 7 8 6 16 12 12 15 14 15 13
23 22 21 20 20 20 19 18 19 18 17 16 17 15 14 12 28 10 6 6 9 24 25 24 19 9 4 5 5 6 5 3 7 11 14 9 8 5 17 14 8 16 17 15 13
25 25 23 22 21 22 21 20 20 19 17 17 17 15 14 11 22 20 30 27 15 21 27 26 23 24 7 7 6 7 6 1 2 4 7 7 2 5 11 12 16 19 19 17 13
25 25 24 24 24 23 22 22 20 20 19 19 18 17 19 33 14 9 10 22 19 13 28 27 25 12 7 6 6 1 2 5 2 5 3 4 3 9 12 18 19 22 19 16 12
25 24 25 25 25 25 24 21 21 21 21 19 18 17 16 22 16 25 25 12 12 17 21 24 20 20 12 10 3 3 4 3 4 5 3 8 10 6 15 23 23 22 20 17 13
26 24 24 24 25 25 24 21 20 21 20 18 15 11 13 13 19 21 22 23 11 13 13 13 6 9 4 2 3 7 3 4 6 9 3 5 9 3 13 28 24 23 21 17 13
25 25 24 23 23 23 23 19 17 17 13 7 8 5 19 11 10 17 17 20 15 12 11 9 5 3 2 3 5 4 3 3 4 3 4 3 13 6 9 26 24 24 22 19 15
24 24 23 22 20 19 17 10 6 3 9 11 6 9 4 2 6 9 14 19 13 10 7 7 4 8 9 7 5 4 3 5 4 5 5 7 9 16 11 19 15 24 25 22 17
25 21 21 22 19 15 12 3 5 4 12 17 29 31 29 26 11 11 15 16 10 6 7 4 12 7 7 4 4 3 3 5 5 3 6 8 10 8 8 13 27 29 29 25 20
26 23 22 21 19 14 9 7 6 10 6 11 26 32 39 25 18 26 13 15 5 7 7 9 4 8 7 5 4 5 3 5 7 2 3 1 6 5 5 7 13 21 27 28 24
27 24 21 20 12 11 7 6 7 6 4 7 8 14 26 21 9 31 22 17 3 14 9 7 6 8 5 5 8 4 8 6 4 2 5 4 5 6 6 6 7 19 29 30 27
28 23 21 17 9 4 4 8 6 5 5 6 7 5 19 23 16 14 29 18 10 7 7 10 8 6 5 10 7 10 3 5 3 4 2 2 2 6 2 6 10 17 30 33 29
27 23 22 20 16 16 10 2 7 4 11 5 6 8 7 11 15 12 20 17 14 6 3 10 9 10 12 8 9 3 3 6 4 4 1 7 7 5 5 8 7 5 27 35 32
27 25 24 22 13 9 10 5 3 7 2 6 7 7 11 6 8 10 13 13 11 8 11 4 5 4 6 5 3 5 6 4 4 3 6 3 3 8 8 10 9 9 26 36 34
27 26 26 25 16 13 6 2 9 9 12 3 5 6 9 8 11 9 8 15 14 7 6 10 9 10 4 8 10 7 9 5 6 3 5 3 5 6 7 8 14 13 20 34 35
24 25 28 27 19 12 8 8 13 7 13 4 3 5 5 8 7 10 18 16 13 13 17 8 8 3 7 5 11 5 4 6 4 1 2 3 7 10 4 4 4 11 21 32 37
25 25 28 26 21 14 3 25 8 6 5 24 9 6 10 7 9 17 14 16 13 9 6 6 2 5 7 5 1 9 6 2 2 2 4 4 4 6 9 5 5 7 18 31 36
21 11 14 30 25 16 8 14 21 13 4 15 23 7 7 8 10 8 7 9 21 10 12 6 6 4 6 7 9 3 3 4 4 4 5 3 6 6 6 9 8 10 24 33 39
21 5 13 35 8 7 16 8 8 23 9 3 3 8 8 7 9 11 12 12 19 14 13 8 7 6 8 3 5 7 10 9 5 5 3 4 8 6 7 9 8 11 21 29 36
9 7 17 40 10 12 15 11 12 9 6 2 3 4 4 6 4 5 6 7 15 17 12 8 3 3 5 3 1 4 5 5 5 4 7 5 6 3 4 3 3 9 17 25 32
7 5 8 22 15 14 16 17 7 24 12 1 3 4 2 5 1 4 2 3 3 6 20 20 6 11 15 5 6 5 5 6 7 5 5 6 5 5 2 4 2 6 14 22 33
8 2 2 4 9 11 6 3 21 8 11 3 3 4 3 4 4 4 2 2 4 4 4 7 8 6 5 10 11 13 8 12 9 8 8 8 9 7 4 4 8 10 16 23 30
7 3 2 3 18 15 8 4 16 20 3 11 4 3 5 4 4 3 3 2 2 7 4 0 4 8 7 9 13 11 16 15 17 3 2 6 5 7 6 6 5 12 21 27 31
9 11 6 1 4 9 12 13 5 2 2 6 4 2 5 1 6 10 12 10 4 1 2 1 4 4 5 5 7 16 15 13 8 5 9 7 9 7 5 8 13 13 20 26 30

GFSSW_850_spd_003.txt.gz
Wind_Speed
11 13 15 14 15 14 14 15 13 13 14 16 16 16 14 17 20 24 32 27 23 20 12 11 7 11 14 9 8 5 4 5 5 3 4 4 6 6 5 5 5 7 8 8 6
13 14 13 15 15 16 16 16 16 16 16 16 17 16 16 16 20 30 33 21 21 23 17 14 12 13 8 7 6 7 4 5 5 6 8 6 12 8 7 4 6 9 14 9 8
17 16 17 17 17 18 17 17 17 16 15 15 14 14 14 14 18 27 19 12 19 23 22 16 8 14 10 6 7 6 10 11 14 21 15 8 8 9 9 6 13 16 15 12 11
20 19 19 18 19 18 18 19 18 17 16 17 15 13 12 9 7 3 4 7 11 20 23 18 15 9 5 5 6 8 12 13 11 7 7 5 6 8 14 14 5 10 13 14 14
24 22 22 21 21 20 20 20 19 18 17 17 16 14 12 10 27 7 9 4 1 16 28 23 16 11 8 6 5 8 14 6 7 6 7 6 6 7 16 17 15 10 13 15 14
23 23 23 23 22 22 22 22 19 19 18 18 17 16 13 15 18 15 25 25 17 9 29 28 16 18 5 6 9 8 11 2 1 2 2 4 2 3 7 14 16 13 17 16 14
22 22 23 24 24 24 23 21 20 19 19 19 19 19 19 32 10 12 7 10 17 14 18 29 24 13 9 6 6 5 5 2 2 3 0 4 5 9 13 11 15 17 18 18 15
22 22 21 22 24 24 23 21 20 20 20 19 19 19 17 24 20 22 28 21 7 9 12 18 23 12 6 3 4 3 1 2 1 4 0 7 10 12 13 17 18 18 20 19 18
23 23 21 21 23 23 22 21 20 20 20 19 15 12 13 17 19 21 26 17 13 10 11 12 16 9 7 6 6 2 6 6 5 5 3 9 9 11 6 17 18 19 21 21 19
21 20 22 22 20 20 20 17 16 17 17 10 10 5 19 12 8 9 10 20 13 15 14 12 6 8 6 8 12 9 5 3 4 2 5 7 14 18 12 14 20 20 19 20 20
24 21 22 20 19 17 16 7 6 4 14 14 11 14 3 6 9 8 10 19 17 16 11 11 10 16 17 12 9 9 5 5 5 5 4 10 12 16 16 15 17 19 21 21 22
23 22 22 21 17 14 11 3 1 4 10 22 31 26 25 12 5 10 12 16 13 13 10 7 18 12 11 9 9 6 5 6 6 5 4 10 14 16 12 10 18 22 23 24 20
23 21 20 21 21 11 8 6 5 5 6 12 28 29 40 26 14 15 15 13 11 12 20 20 9 12 11 9 9 6 7 4 9 3 5 7 11 8 8 6 8 15 21 24 26
20 20 19 19 16 11 8 11 7 5 5 6 10 13 27 18 12 33 18 13 6 19 13 12 9 13 11 13 12 11 11 7 5 4 9 1 7 7 9 11 9 14 20 24 26
17 16 18 17 9 7 5 11 5 7 6 5 8 4 14 30 13 19 31 18 14 11 10 15 14 16 11 12 12 9 6 5 4 7 3 4 4 5 4 9 13 15 20 24 28
20 15 16 19 17 15 12 7 7 4 12 4 9 12 13 25 11 11 17 17 13 7 5 17 5 10 14 8 13 4 4 3 2 2 4 7 6 4 5 8 6 7 12 22 27
19 21 17 22 17 13 12 8 6 10 1 7 8 10 14 14 18 11 19 21 16 16 19 10 13 5 6 8 4 8 7 5 4 4 6 2 4 8 11 14 13 13 7 17 26
19 17 23 22 18 16 11 6 12 14 21 2 5 11 13 15 17 18 18 20 22 21 15 16 13 16 9 17 13 13 12 7 4 4 8 3 5 6 8 6 6 9 6 15 25
18 20 23 22 24 18 8 13 15 15 16 11 6 10 9 13 10 17 22 23 24 23 17 18 18 5 14 8 16 7 7 6 8 1 4 3 5 11 6 9 5 3 9 17 25
18 19 24 20 27 23 7 25 15 9 4 24 19 11 16 19 12 19 20 17 20 23 16 7 8 14 12 11 8 13 12 5 3 5 7 4 3 7 13 10 1 5 10 17 23
16 9 13 22 29 17 12 16 22 14 6 11 23 11 8 11 18 17 13 11 24 21 20 14 9 4 10 16 18 7 9 3 3 4 7 8 5 5 8 4 5 7 13 20 26
11 4 13 22 9 4 16 12 10 12 30 6 4 20 10 11 15 15 18 13 25 19 23 20 12 15 10 4 16 22 18 15 10 9 4 5 10 5 7 3 5 4 9 15 25
7 7 21 28 7 4 14 19 18 12 12 7 5 4 13 8 6 13 10 8 19 23 20 13 12 13 14 5 3 13 12 14 7 3 13 11 8 2 4 1 5 11 16 19 27
5 3 5 21 10 5 16 17 14 18 19 17 12 6 4 12 1 5 10 2 15 22 25 25 10 24 19 13 13 10 13 15 16 10 11 12 14 7 8 5 8 14 16 20 28
12 4 3 4 6 14 9 8 18 16 16 4 6 4 3 9 13 6 3 5 5 9 13 17 19 17 21 15 18 19 18 17 16 15 13 12 11 13 11 8 8 10 16 19 25
6 4 4 0 2 15 7 10 21 13 19 16 10 5 6 1 2 10 0 4 3 4 13 3 10 14 17 17 21 22 22 19 21 20 17 16 15 10 8 9 9 12 16 19 26
8 6 2 2 1 2 6 16 12 20 8 24 11 14 7 5 8 4 5 4 1 1 4 6 8 8 16 12 18 19 25 23 18 15 15 15 17 9 9 11 14 18 20 23 24

GFSSW_850_spd_006.txt.gz
Wind_Speed
15 16 16 16 16 16 16 15 16 17 15 16 15 17 17 17 19 24 27 22 21 14 17 12 10 12 13 13 11 8 11 12 12 13 12 6 11 4 5 10 8 9 9 5 7
16 17 17 18 18 18 17 15 17 16 16 15 16 17 18 18 21 28 29 20 17 23 23 17 16 15 15 16 12 13 12 16 8 12 14 19 11 15 7 9 12 11 9 11 9
19 19 19 19 18 19 19 17 17 17 16 15 15 15 14 15 16 15 18 12 21 24 21 21 16 18 18 15 16 15 15 14 15 16 19 21 15 12 13 13 11 11 12 12 11
21 21 21 21 21 20 19 18 18 19 18 17 16 15 14 11 7 6 7 9 19 25 21 23 21 22 19 17 18 15 18 19 18 14 13 9 8 10 14 14 3 7 7 13 15
22 22 23 24 24 23 23 21 20 19 19 18 17 15 13 11 21 7 10 7 2 14 28 27 25 26 19 19 17 15 18 16 16 14 10 5 10 9 12 10 10 9 11 15 15
23 22 23 23 23 24 24 24 22 21 19 19 18 15 13 20 17 14 24 27 19 14 24 29 27 26 18 21 16 15 12 15 14 13 7 8 5 4 9 4 11 12 14 15 15
21 21 21 22 23 22 22 22 23 22 21 20 20 17 18 32 12 10 5 7 14 20 18 31 28 22 22 13 18 14 15 14 14 12 6 6 10 9 10 6 11 15 14 15 15
22 20 21 22 23 23 22 20 20 22 22 21 19 17 18 19 23 30 26 20 8 16 17 18 26 21 15 10 10 13 14 15 12 9 6 6 9 9 10 10 15 16 17 16 16
21 20 21 22 18 21 23 20 19 19 21 19 16 12 18 15 26 28 25 24 21 18 12 11 24 23 17 15 15 16 15 18 10 11 5 11 13 8 11 12 16 16 18 18 17
21 20 21 23 19 18 21 19 17 16 16 11 9 7 20 13 13 13 15 21 13 19 14 17 18 17 18 16 16 16 13 12 13 9 9 12 14 14 17 17 16 17 18 20 19
22 22 20 20 22 17 16 9 5 6 13 17 11 21 2 8 15 10 11 18 19 24 17 25 19 22 27 22 17 14 12 14 12 7 10 16 15 15 18 21 16 17 19 21 20
18 19 20 19 20 17 10 5 5 6 12 23 33 26 23 6 7 18 16 18 24 22 22 16 23 25 22 19 17 15 17 17 11 10 9 15 17 19 17 17 16 16 18 20 19
19 17 18 17 17 15 8 6 7 4 9 18 30 35 35 24 16 18 24 26 23 26 27 23 21 22 20 16 18 19 18 15 12 12 12 16 18 12 9 10 13 13 15 18 22
18 15 14 15 15 9 6 8 7 3 7 11 12 16 36 28 20 32 27 26 20 27 27 22 21 20 18 23 21 20 16 15 14 12 12 4 14 14 10 11 11 13 14 17 21
17 14 12 13 6 4 3 4 3 4 7 5 14 7 22 36 10 33 29 28 20 19 25 25 23 23 22 22 20 17 13 13 15 12 12 16 8 10 6 9 7 6 13 15 20
17 14 11 18 18 13 8 6 3 7 13 9 12 17 19 33 20 15 36 25 23 20 21 23 19 19 20 15 13 15 8 10 8 11 12 15 10 9 3 4 5 5 1 11 18
17 16 13 16 15 11 11 8 8 14 7 12 12 18 24 18 27 18 30 30 19 22 22 25 20 19 18 18 13 17 13 9 10 9 11 2 6 10 10 8 9 9 6 9 19
15 18 17 17 18 9 8 11 17 22 28 8 14 20 23 19 24 25 24 28 29 25 18 22 24 25 18 19 17 20 18 11 10 11 10 6 6 4 2 6 7 6 5 10 21
14 18 18 17 18 21 15 16 19 26 16 27 10 20 18 21 12 24 27 30 33 29 19 23 24 28 23 21 20 14 16 17 15 13 8 11 5 11 7 7 4 3 6 14 22
13 15 20 18 19 23 9 31 21 19 6 18 30 19 23 24 16 24 24 22 32 33 25 11 18 15 23 21 22 20 16 10 10 14 13 8 7 7 3 5 4 6 9 16 22
13 8 10 19 21 14 12 31 28 29 8 10 20 28 23 21 24 27 18 13 33 34 27 15 12 22 17 22 22 13 16 14 13 13 12 9 6 5 4 3 3 7 13 19 23
13 5 9 25 12 4 10 32 39 21 24 22 11 19 23 21 23 24 24 23 27 29 35 30 13 14 23 21 22 22 22 21 11 16 10 10 10 3 5 1 3 9 16 22 24
6 9 7 26 9 12 13 27 28 24 17 14 17 11 20 21 17 25 19 14 20 28 27 25 15 15 15 11 15 23 21 21 20 15 16 12 9 6 5 6 4 12 18 21 25
4 3 8 18 13 18 24 19 20 23 22 23 19 19 18 19 17 13 20 18 19 28 24 25 18 27 22 21 19 21 21 23 22 16 16 17 16 9 8 9 8 11 16 22 27
6 4 4 4 6 11 9 10 12 19 24 23 13 19 12 15 22 16 17 17 16 27 23 20 25 25 25 21 24 21 23 24 24 23 19 16 17 15 10 9 9 12 17 20 27
4 3 3 3 3 16 14 16 21 17 18 25 22 23 5 11 10 22 14 16 21 19 25 21 15 21 21 26 20 22 24 24 25 25 22 19 17 11 13 7 9 14 20 23 29
9 12 4 1 3 2 3 9 18 15 22 26 26 15 17 6 10 10 9 3 0 18 22 22 17 15 21 20 21 22 26 25 23 25 22 22 19 15 11 12 14 16 20 24 27

GFSSW_850_spd_009.txt.gz
Wind_Speed
20 21 21 20 19 18 19 19 19 19 21 19 18 17 18 18 19 22 21 16 17 16 20 19 17 18 18 20 21 16 13 15 19 16 10 11 14 8 4 12 8 7 8 3 5
22 23 23 22 21 21 20 19 20 19 20 20 21 20 20 21 20 26 26 28 16 20 20 25 23 20 23 22 24 19 14 21 15 14 12 18 19 20 7 11 11 10 9 6 8
24 24 25 24 24 23 22 22 21 21 21 19 19 20 18 19 20 23 18 18 22 25 25 24 22 23 25 25 24 23 17 18 19 18 16 17 19 11 10 10 12 4 8 14 12
25 25 26 26 25 24 24 24 24 23 22 21 19 18 17 10 8 3 11 12 21 26 27 30 29 28 26 24 26 21 22 24 19 22 17 13 12 11 10 12 7 7 6 9 13
25 25 26 25 25 25 25 25 24 24 23 22 20 17 16 13 25 18 13 3 6 25 30 32 32 33 26 27 25 19 18 25 26 20 18 16 11 13 13 9 7 7 9 12 14
23 23 24 25 25 25 24 24 24 24 24 23 21 18 16 23 16 16 19 17 9 15 24 29 27 31 29 28 22 25 29 23 21 20 19 12 17 5 13 1 5 11 12 13 14
21 23 24 23 24 24 24 24 23 24 24 23 21 17 18 32 8 12 14 21 23 22 19 26 31 27 28 24 26 26 19 20 20 21 17 14 17 16 14 10 11 11 16 16 16
21 21 23 23 20 20 24 23 21 22 22 21 20 16 20 20 23 31 19 15 14 19 27 20 25 34 30 23 25 20 23 19 22 22 15 10 19 14 14 14 14 15 17 15 16
19 21 20 21 23 19 21 22 19 20 20 18 17 15 26 13 28 34 29 31 28 20 21 22 20 33 30 20 19 19 18 22 19 11 13 16 19 19 7 14 16 17 17 16 16
21 20 22 22 23 23 19 15 15 17 16 11 13 8 25 23 21 20 26 33 25 24 22 21 20 19 20 19 21 20 23 20 16 14 11 16 19 19 19 17 20 22 16 16 18
17 19 21 22 21 20 18 13 8 9 25 22 16 24 8 10 14 12 19 23 28 27 24 29 18 24 32 29 24 22 20 16 12 7 14 11 16 20 23 19 22 23 17 16 18
17 16 18 20 21 20 16 11 8 5 11 31 36 34 28 9 11 21 17 23 27 25 25 22 27 27 27 27 27 25 20 19 15 14 10 14 19 21 20 23 22 21 17 13 17
16 16 14 17 19 20 16 16 10 7 11 26 37 41 38 31 29 22 31 29 24 28 29 30 26 27 26 26 26 23 20 17 17 16 11 12 23 22 15 12 16 13 9 12 18
17 15 12 13 11 10 14 13 8 4 7 18 19 32 40 34 34 37 31 34 24 30 28 27 28 26 27 26 24 22 18 19 16 15 13 14 16 15 16 9 10 15 14 13 16
16 15 12 10 12 6 2 3 6 5 8 7 30 9 26 41 9 34 39 35 29 23 25 30 27 29 25 28 25 19 17 16 13 15 18 19 11 16 10 10 6 8 15 14 17
18 14 13 11 14 17 8 7 5 9 13 9 14 16 20 38 38 11 46 36 31 27 27 30 34 24 26 22 18 20 16 15 11 11 15 18 15 15 9 4 4 3 4 14 17
19 15 18 13 14 11 14 11 8 14 16 14 18 18 25 23 33 27 31 31 27 27 28 27 32 26 18 22 22 16 13 11 12 13 13 17 11 10 14 4 5 4 3 10 16
19 19 19 17 13 12 8 13 16 22 33 6 21 21 28 23 32 31 28 29 33 29 16 23 26 29 21 25 23 22 20 12 15 13 13 11 7 5 4 2 4 4 3 10 16
17 19 17 18 16 14 12 14 21 24 22 32 14 18 26 28 17 31 30 33 34 33 26 24 27 25 25 24 25 18 21 21 20 17 11 6 7 9 6 10 8 5 4 11 18
17 20 19 18 17 17 6 24 29 26 26 23 33 20 22 28 23 33 30 33 34 35 28 16 18 23 27 20 27 23 20 19 14 17 16 13 10 4 10 5 8 7 8 15 21
17 6 10 20 22 13 8 20 29 38 36 17 21 20 26 27 28 23 28 19 35 36 32 28 18 22 26 24 26 21 20 15 15 13 11 10 8 8 6 5 2 9 12 21 23
12 3 12 28 9 4 13 29 32 31 35 18 20 22 26 25 24 29 31 31 30 32 37 33 13 17 29 26 25 26 26 22 10 18 12 12 3 10 7 5 6 9 15 21 22
5 7 8 18 7 13 19 28 30 27 29 26 19 18 24 24 22 27 30 30 21 30 34 26 17 17 22 20 24 25 23 21 19 14 15 12 12 6 10 5 7 5 15 22 23
2 2 5 13 7 11 16 21 21 26 30 23 28 18 22 23 24 18 27 27 28 21 33 25 20 26 20 25 22 25 25 25 22 16 16 16 15 13 13 12 11 6 15 21 24
4 4 4 3 11 13 16 16 20 22 21 27 23 26 24 22 19 23 21 26 20 20 21 26 26 26 26 20 25 23 26 27 27 23 21 18 18 16 10 12 13 14 14 19 26
3 4 5 16 13 9 11 15 18 20 7 18 24 23 21 19 17 18 16 17 23 21 25 22 24 24 26 26 24 27 25 26 27 25 23 22 18 14 12 12 13 17 13 19 26
6 4 5 5 6 5 8 7 10 15 20 22 23 22 24 23 19 35 27 26 24 24 24 23 20 23 22 24 26 23 28 27 24 23 22 21 20 14 10 15 8 12 13 20 25